Location: Poughquag
(41.6090°N, 73.6820°W)
Time: 03:40:44
(UTC-04:00)

Vanguard 1 - Pass Details

Date: 07 June 2020
Orbit: 650 x 3833 km, 34.2° (Epoch: 06 July)

Event Time Altitude Azimuth Distance (km) Brightness Sun altitude
Rises 05:50:46 0° 249° (WSW) 5,331 13.1 4.0°
Reaches altitude 10° 05:53:40 10° 246° (WSW) 4,666 12.9 4.5°
Maximum altitude 06:07:58 66° 168° (SSE) 3,317 12.8 6.9°
Drops below altitude 10° 06:30:34 10° 93° (E) 6,938 15.8 10.8°
Sets 06:36:04 0° 92° (E) 7,948 16.1 11.8°
